Nome, AK

12:09 PM AKST on February 10, 2016 (GMT -0900)
Nome

Weather History for PAOM - March, 2013

Change the Weather History Date:

Friday, March 8, 2013

  Actual Average Record
Temperature  
Mean Temperature 29 °F 10 °F  
Max Temperature 32 °F 18 °F 38 °F (1965)
Min Temperature 25 °F - -37 °F (1970)
Degree Days  
Heating Degree Days 36 55  
Month to date heating degree days 365 447  
Since 1 July heating degree days 9906 9729  
Cooling Degree Days 0    
Month to date cooling degree days 0  
Year to date cooling degree days 0  
Moisture  
Dew Point 29 °F    
Average Humidity 0    
Maximum Humidity 0    
Minimum Humidity 0    
Precipitation  
Precipitation 0.04 in 0.03 in 0.65 in (2009)
Month to date precipitation 0.45 0.20  
Year to date precipitation 1.97 2.07  
Snow  
Snow 0.40 in 0.30 in 15.50 in (2009)
Month to date snowfall 4.5 2.8  
Since 1 July snowfall 45.8 59.5  
Snow Depth 27.00 in    
Sea Level Pressure  
Sea Level Pressure 29.19 in    
Wind  
Wind Speed 14 mph (ESE)    
Max Wind Speed 28 mph    
Max Gust Speed 35 mph    
Visibility 4 miles    
Events Fog , Snow    
T = Trace of Precipitation, MM = Missing Value Source: NWS Daily Summary

Daily Weather History Graph

Daily Weather History Graph

Search for Another Location

Airport or City:

Trip Planner

Search our weather history database for the weather conditions in past years. The results will help you decide how hot, cold, wet, or windy it might be!

Date:

Astronomy

Mar. 08, 2013 Rise Set
Actual Time 8:43 AM AKST 7:42 PM AKST
Civil Twilight 7:55 AM AKST 8:30 PM AKST
Nautical Twilight 6:59 AM AKST 9:27 PM AKST
Astronomical Twilight 5:59 AM AKST 10:28 PM AKST
Moon 7:33 AM AKST (3/8) 4:02 PM AKST (3/8)
Length of Visible Light 12h 35m
Length of Day
10h 59m
Waning Crescent, 11% of the Moon is Illuminated
Mar 8
Waning Crescent
Mar 11
New
Mar 19
First Quarter
Mar 27
Full
Apr 2
Last Quarter

Hourly Weather History & Observations

Time (AKST) Temp. Windchill Dew Point Humidity Pressure Visibility Wind Dir Wind Speed Gust Speed Precip Events Conditions
12:19 AM 30.2 °F 16.5 °F 30.2 °F 100% 29.07 in 1.0 mi East 24.2 mph - 0.01 in Snow Light Snow
12:31 AM 30.2 °F 16.5 °F 28.4 °F 93% 29.06 in 5.0 mi East 24.2 mph 29.9 mph 0.01 in Snow Light Snow
12:53 AM 30.9 °F 18.1 °F 28.0 °F 89% 29.06 in 4.0 mi East 21.9 mph - 0.01 in Snow Light Snow
1:53 AM 30.9 °F 18.7 °F 26.1 °F 82% 29.07 in 8.0 mi East 19.6 mph - 0.00 in Snow Light Snow
3:53 AM 30.9 °F 18.1 °F 27.0 °F 85% 29.08 in 5.0 mi East 21.9 mph - 0.00 in Snow Light Snow
4:18 AM 30.2 °F 17.4 °F 28.4 °F 93% 29.08 in 3.0 mi East 20.7 mph 31.1 mph 0.00 in   Overcast
4:53 AM 30.9 °F 18.4 °F 28.9 °F 92% 29.09 in 7.0 mi East 20.7 mph - 0.00 in Snow Light Snow
5:25 AM 30.2 °F 17.1 °F 28.4 °F 93% 29.09 in 1.5 mi East 21.9 mph - 0.00 in Snow Light Snow
5:40 AM 30.2 °F 18.1 °F 28.4 °F 93% 29.09 in 2.0 mi East 18.4 mph 27.6 mph 0.00 in Snow Light Snow
5:53 AM 30.9 °F 18.4 °F 28.9 °F 92% 29.09 in 2.0 mi East 20.7 mph - 0.01 in Snow Light Snow
6:11 AM 30.2 °F 17.1 °F 26.6 °F 86% 29.09 in 8.0 mi East 21.9 mph - 0.00 in Snow Light Snow
6:53 AM 30.9 °F 18.4 °F 27.0 °F 85% 29.11 in 10.0 mi East 20.7 mph - 0.00 in   Overcast
7:53 AM 30.0 °F 16.3 °F 28.0 °F 92% 29.11 in 6.0 mi East 24.2 mph 28.8 mph 0.00 in Snow Light Snow
8:45 AM 30.2 °F 17.1 °F 28.4 °F 93% 29.11 in 8.0 mi East 21.9 mph - 0.00 in Snow Light Snow
8:53 AM 30.9 °F 17.5 °F 28.0 °F 89% 29.12 in 6.0 mi East 24.2 mph - 0.00 in Snow Light Snow
9:17 AM 30.2 °F 17.4 °F 28.4 °F 93% 29.11 in 2.5 mi East 20.7 mph - 0.00 in Snow Light Snow
9:22 AM 30.2 °F 17.4 °F 28.4 °F 93% 29.12 in 1.0 mi East 20.7 mph - 0.00 in Snow Light Snow
9:26 AM 30.2 °F 18.1 °F 28.4 °F 93% 29.12 in 0.5 mi East 18.4 mph 27.6 mph 0.00 in Snow Light Snow
9:38 AM 30.2 °F 17.8 °F 28.4 °F 93% 29.13 in 1.0 mi East 19.6 mph - 0.00 in Snow Light Snow
9:53 AM 30.0 °F 17.5 °F 28.0 °F 92% 29.14 in 1.8 mi East 19.6 mph - 0.00 in Snow Light Snow
10:15 AM 30.2 °F 18.5 °F 28.4 °F 93% 29.13 in 2.0 mi East 17.3 mph - 0.00 in Snow Light Snow
10:23 AM 30.2 °F 18.1 °F 28.4 °F 93% 29.13 in 1.5 mi East 18.4 mph - 0.00 in Snow Light Snow
10:44 AM 30.2 °F 18.5 °F 28.4 °F 93% 29.12 in 1.2 mi East 17.3 mph - 0.00 in Snow Light Snow
10:53 AM 30.0 °F 18.7 °F 28.9 °F 96% 29.13 in 1.0 mi East 16.1 mph - 0.01 in Snow Light Snow
11:38 AM 30.2 °F 19.3 °F 28.4 °F 93% 29.14 in 2.0 mi East 15.0 mph - 0.00 in Snow Light Snow
11:53 AM 30.9 °F 20.7 °F 28.9 °F 92% 29.15 in 3.0 mi East 13.8 mph - 0.00 in   Overcast
12:53 PM 30.9 °F 21.2 °F 30.0 °F 96% 29.14 in 10.0 mi East 12.7 mph - N/A   Overcast
1:53 PM 32.0 °F 24.2 °F 30.7 °F 95% 29.15 in 10.0 mi ESE 9.2 mph - N/A   Overcast
2:24 PM 32.0 °F 26.4 °F 30.2 °F 93% 29.16 in 6.0 mi ESE 5.8 mph - 0.00 in Snow Light Snow
2:53 PM 32.0 °F 27.5 °F 31.3 °F 97% 29.16 in 5.0 mi SE 4.6 mph - 0.00 in   Overcast
3:24 PM 32.0 °F 27.5 °F 32.0 °F 100% 29.16 in 2.0 mi SSE 4.6 mph - N/A   Overcast
3:53 PM 32.0 °F 27.5 °F 31.3 °F 97% 29.17 in 2.0 mi ESE 4.6 mph - N/A   Overcast
4:29 PM 30.2 °F 25.4 °F 30.2 °F 100% 29.17 in 1.5 mi East 4.6 mph - N/A   Overcast
4:32 PM 30.2 °F 25.4 °F 30.2 °F 100% 29.18 in 3.0 mi East 4.6 mph - N/A   Overcast
4:37 PM 32.0 °F 27.5 °F 30.2 °F 93% 29.18 in 1.5 mi ESE 4.6 mph - N/A   Overcast
4:41 PM 30.2 °F 24.3 °F 30.2 °F 100% 29.19 in 0.8 mi East 5.8 mph - N/A   Overcast
4:53 PM 30.9 °F 26.2 °F 30.9 °F 100% 29.19 in 0.8 mi SSE 4.6 mph - N/A   Overcast
4:57 PM 30.2 °F 25.4 °F 30.2 °F 100% 29.19 in 0.5 mi SSE 4.6 mph - N/A Fog Light Freezing Fog
5:26 PM 30.2 °F 24.3 °F 30.2 °F 100% 29.21 in 0.2 mi SSE 5.8 mph - N/A Fog Light Freezing Fog
5:40 PM 30.2 °F 23.4 °F 30.2 °F 100% 29.21 in 0.5 mi SSE 6.9 mph - N/A Fog Light Freezing Fog
5:43 PM 30.2 °F 24.3 °F 30.2 °F 100% 29.21 in 1.0 mi SSE 5.8 mph - N/A   Mist
5:53 PM 30.0 °F 25.2 °F 30.0 °F 100% 29.22 in 0.8 mi SSE 4.6 mph - N/A   Mist
6:01 PM 30.2 °F 25.4 °F 30.2 °F 100% 29.22 in 0.5 mi SE 4.6 mph - N/A Fog Light Freezing Fog
6:08 PM 30.2 °F 25.4 °F 30.2 °F 100% 29.22 in 1.0 mi ESE 4.6 mph - N/A   Mist
6:20 PM 30.2 °F 26.7 °F 30.2 °F 100% 29.22 in 3.0 mi SE 3.5 mph - N/A   Overcast
6:30 PM 30.2 °F 26.7 °F 30.2 °F 100% 29.23 in 2.5 mi SE 3.5 mph - N/A   Overcast
6:41 PM 30.2 °F 26.7 °F 30.2 °F 100% 29.23 in 3.0 mi ESE 3.5 mph - N/A   Overcast
6:53 PM 30.0 °F 26.5 °F 30.0 °F 100% 29.24 in 3.0 mi ESE 3.5 mph - 0.00 in Snow Light Snow
7:15 PM 30.2 °F 24.3 °F 30.2 °F 100% 29.25 in 3.0 mi SE 5.8 mph - 0.01 in   Overcast
7:42 PM 30.2 °F 25.4 °F 30.2 °F 100% 29.26 in 3.0 mi ESE 4.6 mph - 0.01 in Snow Light Snow
7:49 PM 30.2 °F 26.7 °F 30.2 °F 100% 29.26 in 2.0 mi ESE 3.5 mph - 0.01 in Snow Light Snow
7:53 PM 30.0 °F 25.2 °F 30.0 °F 100% 29.26 in 1.5 mi East 4.6 mph - 0.01 in Snow Light Snow
7:58 PM 30.2 °F 25.4 °F 30.2 °F 100% 29.26 in 1.8 mi East 4.6 mph - 0.00 in Snow Light Snow
8:01 PM 30.2 °F 25.4 °F 30.2 °F 100% 29.26 in 2.0 mi East 4.6 mph - 0.00 in Snow Light Snow
8:05 PM 30.2 °F 25.4 °F 30.2 °F 100% 29.26 in 3.0 mi ESE 4.6 mph - 0.00 in Snow Light Snow
8:12 PM 28.4 °F 23.3 °F 28.4 °F 100% 29.27 in 7.0 mi ESE 4.6 mph - 0.00 in Snow Light Snow
8:53 PM 30.0 °F 23.2 °F 30.0 °F 100% 29.29 in 10.0 mi SE 6.9 mph - 0.00 in   Overcast
9:31 PM 30.2 °F 23.4 °F 30.2 °F 100% 29.30 in 10.0 mi SSE 6.9 mph - N/A   Overcast
9:40 PM 30.2 °F 24.3 °F 30.2 °F 100% 29.31 in 8.0 mi SSE 5.8 mph - N/A   Overcast
9:47 PM 30.2 °F 23.4 °F 30.2 °F 100% 29.31 in 1.5 mi South 6.9 mph - N/A   Overcast
9:53 PM 30.0 °F 24.1 °F 30.0 °F 100% 29.32 in 0.8 mi South 5.8 mph - N/A   Overcast
10:43 PM 28.4 °F 23.3 °F 28.4 °F 100% 29.33 in 1.2 mi South 4.6 mph - N/A   Overcast
10:53 PM 28.9 °F 21.1 °F 28.9 °F 100% 29.34 in 1.8 mi SSW 8.1 mph - N/A   Overcast
11:14 PM 28.4 °F 18.0 °F 28.4 °F 100% 29.35 in 2.0 mi WSW 12.7 mph - N/A   Overcast
11:25 PM 26.6 °F 13.8 °F 26.6 °F 100% 29.35 in 4.0 mi WSW 17.3 mph - N/A   Overcast
11:45 PM 26.6 °F 15.7 °F 24.8 °F 93% 29.37 in 2.0 mi WSW 12.7 mph - N/A   Overcast
11:53 PM 25.0 °F 13.6 °F 25.0 °F 100% 29.38 in 2.0 mi WSW 12.7 mph - N/A   Overcast